GW4542 Weather Reports


time (UTC)temp
C
wind
direction
speed
KPH
gust
KPH
rain 1hr
cm
rain 24hr
cm
rain mn
cm
humidity
%
barometer
mb
20260906234850 13 238 6.4 6.4 0.00 0.25 0.25 86 1024.1
20260906234349 13 239 6.4 9.7 0.00 0.25 0.25 88 1024.1
20260906233844 13 238 9.7 11.3 0.00 0.25 0.25 89 1024.4
20260906233343 13 276 9.7 11.3 0.00 0.25 0.25 88 1024.4
20260906232838 13 252 6.4 6.4 0.18 0.25 0.25 88 1024.1
20260906232337 13 280 12.9 14.5 0.18 0.25 0.25 87 1024.2
20260906231832 13 280 12.9 12.9 0.18 0.25 0.25 86 1024.4
20260906231327 14 251 11.3 12.9 0.00 0.23 0.23 84 1024.2
20260906230827 14 265 12.9 12.9 0.00 0.23 0.23 84 1024.2
20260906230322 14 243 8.0 9.7 0.00 0.23 0.23 85 1024.1
20260906225820 14 261 9.7 12.9 0.00 0.23 0.23 83 1024.0
20260906225316 14 263 6.4 9.7 0.00 0.23 0.23 84 1023.9
20260906224811 14 242 6.4 6.4 0.00 0.23 0.23 83 1023.8
20260906224308 14 265 4.8 4.8 0.00 0.23 0.23 83 1024.0
20260906223804 14 259 9.7 11.3 0.13 0.23 0.23 83 1024.0
20260906223259 14 239 8.0 9.7 0.13 0.23 0.23 83 1023.9
20260906222757 14 252 8.0 11.3 0.00 0.20 0.20 82 1024.0
20260906222256 14 272 9.7 11.3 0.00 0.20 0.20 81 1023.9
20260906221754 14 265 9.7 11.3 0.00 0.20 0.20 80 1024.0
20260906221250 14 260 9.7 11.3 0.00 0.20 0.20 80 1024.0
20260906220745 14 293 9.7 11.3 0.00 0.20 0.20 82 1024.2
20260906220240 14 267 11.3 16.1 0.00 0.20 0.20 82 1023.9
20260906215739 14 232 8.0 9.7 0.00 0.20 0.20 82 1024.2
20260906215239 14 277 9.7 11.3 0.00 0.20 0.20 81 1024.1
20260906214737 14 252 12.9 16.1 0.00 0.20 0.20 81 1023.9
20260906214233 14 268 8.0 11.3 0.00 0.20 0.20 82 1024.1
20260906213731 14 286 11.3 12.9 0.00 0.20 0.20 80 1024.0
20260906213226 15 238 9.7 12.9 0.00 0.20 0.20 81 1024.0
20260906212723 14 288 14.5 20.9 0.00 0.20 0.20 80 1024.2
20260906212219 14 227 6.4 9.7 0.00 0.20 0.20 82 1024.2
20260906211718 14 303 12.9 14.5 0.00 0.20 0.20 82 1024.2
20260906211214 14 276 8.0 9.7 0.00 0.20 0.20 82 1024.1
20260906210709 14 260 12.9 16.1 0.00 0.20 0.20 82 1024.1
20260906210209 13 282 11.3 12.9 0.00 0.20 0.20 83 1024.5
20260906205659 13 260 6.4 6.4 0.00 0.20 0.20 86 1024.1
20260906205155 13 232 4.8 4.8 0.00 0.20 0.20 87 1024.2
20260906204654 14 248 6.4 9.7 0.00 0.20 0.20 87 1024.4
20260906204154 13 266 8.0 12.9 0.00 0.20 0.20 87 1024.6
20260906203654 13 271 9.7 11.3 0.00 0.20 0.20 86 1024.5
20260906203149 14 240 8.0 11.3 0.00 0.20 0.20 86 1024.6
20260906202646 13 265 9.7 12.9 0.00 0.20 0.20 84 1024.9
20260906202145 13 272 8.0 11.3 0.18 0.20 0.20 84 1024.6
20260906201641 13 268 9.7 11.3 0.18 0.20 0.20 84 1024.7
20260906201139 13 265 9.7 12.9 0.00 0.18 0.18 84 1025.0
20260906200636 14 258 6.4 9.7 0.00 0.18 0.18 83 1025.1
20260906200131 14 243 14.5 16.1 0.13 0.18 0.18 82 1024.9
20260906195626 14 234 9.7 11.3 0.30 0.18 0.18 83 1025.0
20260906195123 15 254 6.4 6.4 0.18 0.15 0.15 83 1025.0
20260906194619 15 221 8.0 9.7 0.30 0.15 0.15 80 1025.1
20260906194109 15 211 4.8 4.8 0.13 0.13 0.13 80 1025.0
20260906193608 15 239 3.2 4.8 0.00 0.10 0.10 80 1024.9
20260906193103 15 214 3.2 4.8 0.00 0.10 0.10 81 1025.0
20260906192559 15 236 6.4 6.4 0.18 0.10 0.10 81 1025.1
20260906192058 15 223 4.8 4.8 0.30 0.10 0.10 80 1024.6
20260906191553 15 228 4.8 4.8 0.13 0.08 0.08 78 1024.6
20260906191052 15 179 0.0 1.6 0.00 0.05 0.05 78 1025.0
20260906190552 15 181 1.6 3.2 0.18 0.05 0.05 76 1025.0
20260906190047 16 189 3.2 4.8 0.30 0.05 0.05 71 1024.9
20260906185546 17 181 1.6 1.6 0.13 0.03 0.03 67 1024.7
20260906185045 18 162 0.0 0.0 0.00 0.00 0.00 69 1024.6
20260906184540 17 159 3.2 3.2 0.00 0.00 0.00 58 1024.7
20260906184036 18 155 1.6 1.6 0.00 0.00 0.00 56 1024.5
20260906183532 18 161 0.0 1.6 0.00 0.00 0.00 58 1024.4
20260906183027 20 158 3.2 3.2 0.00 0.00 0.00 48 1024.1
20260906182522 21 150 1.6 3.2 0.00 0.00 0.00 38 1024.1
20260906182018 21 153 0.0 1.6 0.00 0.00 0.00 38 1024.4
20260906181514 21 155 3.2 3.2 0.00 0.00 0.00 36 1024.1
20260906181009 21 121 3.2 4.8 0.00 0.00 0.00 36 1024.1
20260906180504 21 143 4.8 6.4 0.00 0.00 0.00 36 1024.4
20260906180002 21 143 1.6 1.6 0.00 0.00 0.00 39 1024.1
20260906175457 21 173 0.0 0.0 0.00 0.00 0.00 38 1024.4
20260906174956 21 175 0.0 0.0 0.00 0.00 0.00 37 1024.4
20260906174454 20 176 1.6 3.2 0.00 0.00 0.00 38 1024.4
20260906173950 20 168 3.2 3.2 0.00 0.00 0.00 39 1024.4
20260906173445 20 161 3.2 3.2 0.00 0.00 0.00 38 1024.4
20260906172945 20 160 0.0 0.0 0.00 0.00 0.00 39 1024.2
20260906172441 20 141 6.4 6.4 0.00 0.00 0.00 39 1024.4
20260906171936 20 161 0.0 0.0 0.00 0.00 0.00 39 1024.2
20260906171431 20 131 1.6 1.6 0.00 0.00 0.00 39 1024.2
20260906170927 19 196 1.6 3.2 0.00 0.00 0.00 38 1024.2
20260906170423 19 152 1.6 1.6 0.00 0.00 0.00 42 1024.6
20260906165919 20 157 0.0 0.0 0.00 0.00 0.00 39 1024.6
20260906165418 19 154 0.0 1.6 0.00 0.00 0.00 38 1024.6
20260906164914 19 161 0.0 1.6 0.00 0.00 0.00 39 1024.6
20260906164412 19 164 1.6 3.2 0.00 0.00 0.00 39 1024.6
20260906163909 19 156 1.6 1.6 0.00 0.00 0.00 39 1024.5
20260906163404 19 179 1.6 3.2 0.00 0.00 0.00 38 1024.5
20260906162902 19 166 3.2 4.8 0.00 0.00 0.00 39 1024.2
20260906162400 20 182 6.4 6.4 0.00 0.00 0.00 40 1024.2
20260906161856 19 212 6.4 6.4 0.00 0.00 0.00 44 1024.0
20260906161355 19 261 9.7 11.3 0.00 0.00 0.00 44 1023.9
20260906160854 18 279 14.5 16.1 0.00 0.00 0.00 46 1024.1
20260906160348 17 218 4.8 6.4 0.00 0.00 0.00 48 1024.2
20260906155847 17 229 8.0 11.3 0.00 0.00 0.00 49 1024.2
20260906155341 16 259 9.7 11.3 0.00 0.00 0.00 50 1024.4
20260906154837 16 272 12.9 14.5 0.00 0.00 0.00 50 1024.5
20260906154332 16 231 6.4 11.3 0.00 0.00 0.00 51 1024.2
20260906153830 16 209 6.4 6.4 0.00 0.00 0.00 51 1024.5
20260906153330 16 250 8.0 11.3 0.00 0.00 0.00 50 1024.5
20260906152825 16 267 9.7 12.9 0.00 0.00 0.00 50 1024.4
20260906152320 15 271 4.8 4.8 0.00 0.00 0.00 51 1024.2
20260906151819 15 275 9.7 11.3 0.00 0.00 0.00 52 1024.5
20260906151315 15 241 9.7 11.3 0.00 0.00 0.00 53 1024.4
20260906150811 15 249 9.7 12.9 0.00 0.00 0.00 51 1024.5
20260906150306 15 254 11.3 14.5 0.00 0.00 0.00 49 1024.4
20260906145805 15 279 9.7 16.1 0.00 0.00 0.00 50 1024.5
20260906145306 15 291 11.3 12.9 0.00 0.00 0.00 52 1024.4
20260906144759 13 280 12.9 16.1 0.00 0.00 0.00 53 1024.5
20260906144253 13 270 11.3 17.7 0.00 0.00 0.00 54 1024.2
20260906143753 13 247 9.7 12.9 0.00 0.00 0.00 55 1024.0
20260906143250 14 286 16.1 17.7 0.00 0.00 0.00 54 1023.9
20260906142749 14 296 9.7 14.5 0.00 0.00 0.00 54 1023.8
20260906142240 13 273 8.0 12.9 0.00 0.00 0.00 55 1023.8
20260906141738 13 279 11.3 12.9 0.00 0.00 0.00 55 1023.9
20260906141234 13 223 14.5 16.1 0.00 0.00 0.00 56 1024.0
20260906140733 13 250 14.5 16.1 0.00 0.00 0.00 56 1024.0
20260906140228 12 282 14.5 17.7 0.00 0.00 0.00 57 1024.4
20260906135724 12 226 22.5 27.4 0.00 0.00 0.00 58 1023.9
20260906135220 12 304 20.9 25.7 0.00 0.00 0.00 58 1024.0
20260906134715 12 229 14.5 16.1 0.00 0.00 0.00 58 1023.8
20260906134211 12 280 17.7 20.9 0.00 0.00 0.00 59 1023.6
20260906133706 12 259 17.7 24.1 0.00 0.00 0.00 59 1023.6
20260906133201 11 279 17.7 24.1 0.00 0.00 0.00 60 1023.5
20260906132656 11 270 17.7 17.7 0.00 0.00 0.00 61 1023.5
20260906132152 11 293 14.5 16.1 0.00 0.00 0.00 61 1023.6
20260906131647 12 280 16.1 20.9 0.00 0.00 0.00 59 1023.5
20260906131142 12 317 14.5 16.1 0.00 0.00 0.00 58 1023.5
20260906130638 12 237 12.9 16.1 0.00 0.00 0.00 58 1023.6
20260906130133 11 277 9.7 12.9 0.00 0.00 0.00 59 1023.5
20260906125630 11 290 12.9 16.1 0.00 0.00 0.00 62 1023.4
20260906125129 11 251 9.7 11.3 0.00 0.00 0.00 60 1023.5
20260906124625 11 246 17.7 20.9 0.00 0.00 0.00 60 1023.4
20260906124120 11 284 8.0 12.9 0.00 0.00 0.00 61 1023.1
20260906123619 11 223 12.9 14.5 0.00 0.00 0.00 61 1023.6
20260906123115 11 267 11.3 12.9 0.00 0.00 0.00 61 1023.5
20260906122615 11 237 12.9 14.5 0.00 0.00 0.00 61 1023.0
20260906122110 11 286 14.5 17.7 0.00 0.00 0.00 60 1023.4
20260906121606 12 235 8.0 11.3 0.00 0.00 0.00 57 1023.4
20260906121103 12 283 9.7 14.5 0.00 0.00 0.00 55 1023.4
20260906120603 12 203 3.2 3.2 0.00 0.00 0.00 55 1023.1
20260906120100 12 252 3.2 3.2 0.00 0.00 0.00 55 1023.5
20260906115554 12 205 4.8 4.8 0.00 0.00 0.00 57 1023.5
20260906115050 12 212 6.4 6.4 0.00 0.00 0.00 58 1023.6
20260906114544 12 277 8.0 9.7 0.00 0.00 0.00 56 1023.4
20260906114040 13 281 6.4 6.4 0.00 0.00 0.00 55 1023.4
20260906113539 13 184 1.6 1.6 0.00 0.00 0.00 54 1023.3
20260906113034 13 192 1.6 3.2 0.00 0.00 0.00 52 1023.4
20260906112529 12 202 4.8 6.4 0.00 0.00 0.00 56 1023.6
20260906112025 12 289 4.8 6.4 0.00 0.00 0.00 58 1023.3
20260906111524 12 269 8.0 9.7 0.00 0.00 0.00 58 1023.3
20260906111020 12 255 8.0 9.7 0.00 0.00 0.00 57 1023.5
20260906110519 12 276 9.7 12.9 0.00 0.00 0.00 56 1023.3
20260906110019 12 255 9.7 12.9 0.00 0.00 0.00 56 1023.0
20260906105514 13 277 8.0 11.3 0.00 0.00 0.00 56 1022.9
20260906105011 13 253 9.7 11.3 0.00 0.00 0.00 55 1023.1
20260906104509 13 251 12.9 16.1 0.00 0.00 0.00 55 1023.1
20260906104009 13 265 16.1 17.7 0.00 0.00 0.00 55 1023.1
20260906103508 13 280 14.5 16.1 0.00 0.00 0.00 54 1023.0
20260906103003 13 266 12.9 16.1 0.00 0.00 0.00 53 1023.0
20260906102502 13 292 11.3 12.9 0.00 0.00 0.00 53 1023.1
20260906102002 13 295 9.7 14.5 0.00 0.00 0.00 53 1023.0
20260906101458 13 236 12.9 14.5 0.00 0.00 0.00 53 1023.0
20260906100953 13 262 14.5 22.5 0.00 0.00 0.00 53 1022.8
20260906100448 13 273 14.5 20.9 0.00 0.00 0.00 53 1022.7
20260906095948 13 277 9.7 12.9 0.00 0.00 0.00 53 1022.8
20260906095443 13 254 9.7 12.9 0.00 0.00 0.00 52 1022.8
20260906094938 14 262 11.3 14.5 0.00 0.00 0.00 52 1022.9
20260906094432 14 269 14.5 16.1 0.00 0.00 0.00 52 1022.7
20260906093928 13 268 12.9 14.5 0.00 0.00 0.00 53 1023.0
20260906093424 13 254 9.7 11.3 0.00 0.00 0.00 54 1022.9
20260906092924 13 281 11.3 14.5 0.00 0.00 0.00 54 1022.9
20260906092424 13 277 9.7 12.9 0.00 0.00 0.00 55 1022.9
20260906091920 13 257 9.7 12.9 0.00 0.00 0.00 53 1023.0
20260906091415 13 264 12.9 16.1 0.00 0.00 0.00 52 1022.9
20260906090912 13 268 8.0 11.3 0.00 0.00 0.00 52 1023.1
20260906090412 13 245 6.4 6.4 0.00 0.00 0.00 53 1023.1
20260906085906 13 246 4.8 4.8 0.00 0.00 0.00 55 1023.4
20260906085359 13 229 3.2 3.2 0.00 0.00 0.00 54 1023.3
20260906084854 14 209 6.4 6.4 0.00 0.00 0.00 51 1023.3
20260906084354 14 270 8.0 11.3 0.00 0.00 0.00 50 1023.1
20260906083848 14 254 9.7 11.3 0.00 0.00 0.00 51 1023.3
20260906083344 14 271 8.0 12.9 0.00 0.00 0.00 50 1023.3
20260906082843 13 260 8.0 11.3 0.00 0.00 0.00 52 1023.5
20260906082338 13 255 3.2 4.8 0.00 0.00 0.00 53 1023.4
20260906081834 13 195 3.2 3.2 0.00 0.00 0.00 53 1023.3
20260906081330 14 174 1.6 1.6 0.00 0.00 0.00 52 1023.5
20260906080826 15 277 8.0 9.7 0.00 0.00 0.00 49 1023.4
20260906080322 15 194 3.2 3.2 0.00 0.00 0.00 48 1023.3
20260906075821 15 187 3.2 4.8 0.00 0.00 0.00 48 1023.5
20260906075316 15 236 9.7 11.3 0.00 0.00 0.00 48 1023.1
20260906074812 15 274 11.3 14.5 0.00 0.00 0.00 48 1023.4
20260906074311 15 273 6.4 6.4 0.00 0.00 0.00 49 1023.3
20260906073810 15 346 6.4 9.7 0.00 0.00 0.00 49 1023.3
20260906073305 15 204 3.2 6.4 0.00 0.00 0.00 49 1023.5
20260906072801 15 218 4.8 4.8 0.00 0.00 0.00 49 1023.5
20260906072257 15 196 3.2 3.2 0.00 0.00 0.00 49 1023.5
20260906071753 15 158 1.6 1.6 0.00 0.00 0.00 48 1023.8
20260906071252 15 179 0.0 1.6 0.00 0.00 0.00 48 1023.6
20260906070744 15 185 0.0 0.0 0.00 0.00 0.00 49 1023.6
20260906070239 15 181 0.0 1.6 0.00 0.00 0.00 48 1023.5
20260906065738 14 118 1.6 3.2 0.00 0.00 0.00 49 1023.4
20260906065234 14 168 0.0 0.0 0.00 0.00 0.00 50 1023.4
20260906064729 15 172 0.0 0.0 0.00 0.00 0.00 48 1023.6
20260906064225 14 203 1.6 1.6 0.00 0.00 0.00 47 1023.5
20260906063719 13 151 0.0 0.0 0.00 0.00 0.00 53 1023.4
20260906063215 13 151 0.0 0.0 0.00 0.00 0.00 52 1023.6
20260906062711 13 151 0.0 0.0 0.00 0.00 0.00 52 1023.6
20260906062210 13 150 0.0 0.0 0.00 0.00 0.00 51 1023.5
20260906061706 14 150 0.0 0.0 0.00 0.00 0.00 49 1023.4
20260906061202 13 150 0.0 1.6 0.00 0.00 0.00 51 1023.3
20260906060657 14 150 1.6 1.6 0.00 0.00 0.00 49 1023.4
20260906060154 13 152 1.6 1.6 0.00 0.00 0.00 49 1023.4
20260906055649 13 166 0.0 0.0 0.00 0.00 0.00 51 1023.5
20260906055144 13 166 0.0 0.0 0.00 0.00 0.00 51 1023.4
20260906054640 13 166 1.6 1.6 0.00 0.00 0.00 52 1023.6
20260906054135 13 167 0.0 0.0 0.00 0.00 0.00 51 1023.3
20260906053631 13 167 0.0 1.6 0.00 0.00 0.00 51 1023.6
20260906053126 13 168 0.0 0.0 0.00 0.00 0.00 51 1023.5
20260906052621 13 166 0.0 1.6 0.00 0.00 0.00 51 1023.4
20260906052118 13 159 0.0 0.0 0.00 0.00 0.00 50 1023.3
20260906051614 15 159 0.0 1.6 0.00 0.00 0.00 49 1023.5
20260906051109 14 152 3.2 3.2 0.00 0.00 0.00 47 1023.6
20260906050604 15 182 1.6 1.6 0.00 0.00 0.00 50 1023.4
20260906050059 15 188 0.0 0.0 0.00 0.00 0.00 48 1023.6
20260906045557 17 195 0.0 0.0 0.00 0.00 0.00 45 1023.6
20260906045053 17 217 4.8 4.8 0.00 0.00 0.00 40 1023.4
20260906044548 15 200 1.6 3.2 0.00 0.00 0.00 45 1023.8
20260906044043 15 190 0.0 1.6 0.00 0.00 0.00 47 1023.4
20260906043539 16 189 0.0 0.0 0.00 0.00 0.00 45 1023.5
20260906043035 16 194 0.0 1.6 0.00 0.00 0.00 44 1023.5
20260906042533 16 163 1.6 3.2 0.00 0.00 0.00 44 1023.3
20260906042029 16 192 0.0 0.0 0.00 0.00 0.00 43 1023.4
20260906041525 16 184 0.0 1.6 0.00 0.00 0.00 43 1023.3
20260906041025 16 184 0.0 1.6 0.00 0.00 0.00 43 1023.6
20260906040520 16 160 0.0 0.0 0.00 0.00 0.00 44 1023.8
20260906040015 16 159 0.0 0.0 0.00 0.00 0.00 44 1023.6
20260906035510 16 159 0.0 1.6 0.00 0.00 0.00 43 1023.6
20260906035006 17 168 1.6 1.6 0.00 0.00 0.00 41 1023.6
20260906034506 18 194 1.6 3.2 0.00 0.00 0.00 37 1023.5
20260906034001 18 194 1.6 1.6 0.00 0.00 0.00 38 1023.4
20260906033455 18 193 0.0 0.0 0.00 0.00 0.00 39 1023.4
20260906032952 19 193 1.6 1.6 0.00 0.00 0.00 39 1023.1
20260906032448 19 193 1.6 1.6 0.00 0.00 0.00 36 1023.3
20260906031942 19 193 3.2 3.2 0.00 0.00 0.00 36 1023.4
20260906031438 19 193 3.2 3.2 0.00 0.00 0.00 36 1023.1
20260906030933 20 196 4.8 4.8 0.00 0.00 0.00 35 1023.1
20260906030428 20 197 4.8 4.8 0.00 0.00 0.00 35 1022.8
20260906025928 20 211 6.4 6.4 0.00 0.00 0.00 34 1022.7
20260906025422 20 194 6.4 6.4 0.00 0.00 0.00 34 1022.7
20260906024921 20 188 3.2 3.2 0.00 0.00 0.00 34 1022.7
20260906024420 20 206 4.8 4.8 0.00 0.00 0.00 34 1022.5
20260906023910 20 203 3.2 3.2 0.00 0.00 0.00 34 1022.7
20260906023407 20 212 6.4 6.4 0.00 0.00 0.00 33 1022.2
20260906022906 20 217 4.8 4.8 0.00 0.00 0.00 34 1022.2
20260906022401 21 206 3.2 4.8 0.00 0.00 0.00 34 1022.0
20260906021857 21 204 3.2 3.2 0.00 0.00 0.00 34 1021.9
20260906021356 21 205 3.2 3.2 0.00 0.00 0.00 33 1022.0
20260906020851 21 204 4.8 4.8 0.00 0.00 0.00 34 1022.0
20260906020345 21 227 4.8 4.8 0.00 0.00 0.00 33 1021.8
20260906015839 22 201 4.8 4.8 0.00 0.00 0.00 32 1021.9
20260906015338 22 212 6.4 6.4 0.00 0.00 0.00 31 1021.8
20260906014833 22 210 6.4 6.4 0.00 0.00 0.00 31 1022.0
20260906014328 23 217 6.4 6.4 0.00 0.00 0.00 30 1022.0
20260906013824 23 219 8.0 9.7 0.00 0.00 0.00 29 1022.0
20260906013319 24 211 6.4 9.7 0.00 0.00 0.00 29 1022.0
20260906012814 24 189 8.0 9.7 0.00 0.00 0.00 28 1022.0
20260906012309 25 211 3.2 4.8 0.00 0.00 0.00 28 1022.0
20260906011804 25 218 6.4 6.4 0.00 0.00 0.00 28 1021.9
20260906011304 25 236 4.8 4.8 0.00 0.00 0.00 27 1022.0
20260906010800 25 220 8.0 9.7 0.00 0.00 0.00 27 1022.0
20260906010256 25 259 9.7 11.3 0.00 0.00 0.00 26 1021.9
20260906005750 25 232 9.7 11.3 0.00 0.00 0.00 26 1022.2
20260906005250 25 170 12.9 14.5 0.00 0.00 0.00 26 1022.2
20260906004749 25 195 6.4 6.4 0.00 0.00 0.00 26 1022.0
20260906004244 26 208 16.1 16.1 0.00 0.00 0.00 25 1021.9
20260906003738 26 215 6.4 9.7 0.00 0.00 0.00 25 1022.2
20260906003235 26 249 14.5 16.1 0.00 0.00 0.00 25 1021.8
20260906002734 26 221 12.9 14.5 0.00 0.00 0.00 25 1021.9
20260906002234 26 245 8.0 9.7 0.00 0.00 0.00 25 1021.8
20260906001730 26 220 17.7 22.5 0.00 0.00 0.00 25 1021.7
20260906001225 26 207 11.3 14.5 0.00 0.00 0.00 25 1021.7
20260906000720 27 227 8.0 9.7 0.00 0.00 0.00 24 1021.7
20260906000215 26 244 9.7 12.9 0.00 0.00 0.00 25 1021.8
20260905235715 26 215 16.1 17.7 0.00 0.00 0.00 25 1021.9
20260905235209 26 209 16.1 17.7 0.00 0.00 0.00 25 1021.9